Station SBIO1 - South Bass Island, OH Image indicating link to RSS feed of recent meteorological observations for station SBIO1


Conditions at SBIO1 as of
(2:00 am EDT)
0600 GMT on 06/21/2024:
     

Click on the graph icon in the table below to see a time series plot of the last five days of that observation.

5-day plot - Wind Direction Wind Direction (WDIR): NE ( 40 deg true )
5-day plot - Wind Speed Wind Speed (WSPD): 4 kts
5-day plot - Wind Gust Wind Gust (GST): 7 kts
5-day plot - Atmospheric Pressure Atmospheric Pressure (PRES):30.21 in
5-day plot - Pressure Tendency Pressure Tendency (PTDY):-0.02 in ( Falling )
5-day plot - Air Temperature Air Temperature (ATMP): 74.5 °F
5-day plot - Wind Speed at 10 Meters Wind Speed at 10 meters (WSPD10M): 4 kts
5-day plot - Wind Speed at 20 Meters Wind Speed at 20 meters (WSPD20M): 4 kts
5-day plot -  Wind Speed, Wind Gust and Atmospheric Pressure Combined plot of Wind Speed, Gust, and Air Pressure
Continuous Winds
TIME
(EDT)
5-day plot - Wind Direction WDIR 5-day plot - Wind Speed WSPD
2:00 amNE ( 40 deg ) 5 kts
1:50 amNE ( 37 deg ) 5 kts
1:40 amNE ( 36 deg ) 4 kts
1:30 amNNE ( 31 deg ) 3 kts
1:20 amNNE ( 22 deg ) 4 kts
1:10 amN ( 5 deg ) 5 kts
 
Peak gust during the measurement hour
TIME
(EDT)
5-day plot - Gust Direction GDR 5-day plot - Gust Speed GST
1:52 amNE ( 40 deg ) 10 kts
Previous observations
TIME
(EDT)
5-day plot - Wind Direction
WDIR
 
5-day plot - Wind Speed
WSPD
kts
5-day plot - Wind Gust
GST
kts
5-day plot - Wave Height
WVHT
ft
5-day plot - Dominant Wave Period
DPD
sec
5-day plot - Average Wave Period
APD
sec
5-day plot - Mean Wave Direction
MWD
 
5-day plot - Atmospheric Pressure
PRES
in
5-day plot - Pressure Tendency
PTDY
in
5-day plot - Air Temperature
ATMP
°F
5-day plot - Water Temperature
WTMP
°F
5-day plot - Dew Point
DEWP
°F
5-day plot - Salinity
SAL
psu
5-day plot - Visibility
VIS
nmi
5-day plot - Tide (above MLLW)
TIDE
ft
2024-06-21 01:00 am N 5 8----30.22+0.00 75.0-----
2024-06-21 12:00 am NE 6 9----30.22+0.02 75.9-----
2024-06-20 11:00 pm NE 7 8----30.23+0.04 77.4-----
2024-06-20 10:00 pmENE 8 10----30.22+0.03 78.6-----
2024-06-20 09:00 pm E 5 8----30.20+0.01 78.8-----
2024-06-20 08:00 pm N 5 7----30.18-0.02 80.8-----
2024-06-20 07:00 pmNNE 6 9----30.19-0.02 83.7-----
2024-06-20 06:00 pmENE 8 11----30.19-0.04 82.6-----
2024-06-20 05:00 pmENE 8 11----30.20-0.05 81.5-----
2024-06-20 04:00 pmENE 7 10----30.21-0.05 82.9-----
2024-06-20 03:00 pmENE 7 10----30.23-0.04 82.9-----
2024-06-20 02:00 pmENE 7 10----30.25-0.01 81.1-----
2024-06-20 01:00 pmENE 8 11----30.26+0.00 82.0-----
2024-06-20 12:00 pmNNW 5 6----30.27+0.00 80.2-----
2024-06-20 11:00 amNNW 3 4----30.26+0.01 80.1-----
2024-06-20 10:00 amSSW 4 5----30.26+0.01 78.6-----
2024-06-20 09:00 am SE 3 3----30.26+0.02 77.0-----
2024-06-20 08:00 amSSW 5 7----30.25+0.01 76.8-----
2024-06-20 07:00 amSSE 7 8----30.25+0.01 77.0-----
2024-06-20 06:00 am SE 8 9----30.24+0.00 77.0-----
2024-06-20 05:00 amESE 8 9----30.24+0.00 76.5-----
2024-06-20 04:00 am E 7 8----30.24-0.01 75.6-----
2024-06-20 03:00 amENE 8 12----30.24+0.00 74.8-----
2024-06-20 02:00 amENE 9 12----30.25+0.03 76.5-----